{"data":{"norad_id":69695,"epoch":"2026-09-19T01:14:49.117632Z","epoch_age_seconds":146793,"freshness":"FRESH","line1":"1 69695U 26145U   26262.05195738  .00015264  00000+0  47410-3 0  9995","line2":"2 69695  97.2842 108.7751 0001443  91.9316 268.2092 15.33449836 13323","mean_motion":15.33449836,"eccentricity":0.0001443,"inclination_deg":97.2842,"raan_deg":108.7751,"arg_perigee_deg":91.9316,"mean_anomaly_deg":268.2092,"bstar":0.0004741,"rev_number":1332,"period_min":93.905908507332,"perigee_km":464.54124500944,"apogee_km":466.51632695528,"semimajor_km":6843.6657859824,"source":"CELESTRAK","updated_at":"2026-09-20T09:00:44.255891Z"}}